Regional Weather Roundup
Issued by NWS Sioux Falls, SD

Home | Current Version | Previous Version | Graphics & Text | Print | Product List | Glossary Off
Versions: 1 2 3 4 5 6 7 8 9 10 11 12 13 14 15 16 17 18 19 20 21 22 23 24 25 26 27 28 29 30 31 32 33 34 35 36 37 38 39 40 41 42 43 44 45 46 47 48 49 50

000
ASUS43 KFSD 030210
RWRFSD

WEATHER ROUNDUP FOR SE SOUTH DAKOTA/SW MINNESOTA/NW IOWA
NATIONAL WEATHER SERVICE SIOUX FALLS SD
900 PM CDT SAT MAY 02 2015

NOTE: "FAIR" INDICATES FEW OR NO CLOUDS BELOW 12,000 FEET WITH NO
SIGNIFICANT WEATHER AND OR OBSTRUCTIONS TO VISIBILITY.


SDZ038>040-050-052>070-030300-
SOUTHEAST SOUTH DAKOTA

CITY           SKY/WX    TMP DP  RH WIND       PRES   REMARKS
BROOKINGS      CLEAR     72  45  37 S9        29.72R
CHAMBERLAIN    MOCLDY    69  44  39 SE6       29.64S
HURON          PTCLDY    75  44  33 S13       29.63S
MADISON        FAIR      70  48  46 S10       29.72R
MITCHELL       PTCLDY    71  49  45 S7        29.66S
SIOUX FALLS    PTCLDY    71  53  52 S13       29.71S
WINNER         FAIR      77  41  27 S9        29.65S
YANKTON        CLEAR     72  55  56 E7        29.69S
$$

MNZ071-072-080-081-089-090-097-098-030300-
SOUTHWEST MINNESOTA

CITY           SKY/WX    TMP DP  RH WIND       PRES   REMARKS
FAIRMONT       CLEAR     66  48  52 S16       29.78S
JACKSON        CLEAR     68  52  56 S12       29.78S
LUVERNE        CLEAR     70  52  52 S8        29.74S
MARSHALL       CLEAR     73  46  38 S15       29.71R
MONTEVIDEO     CLEAR     75  43  31 SW12G20   29.70R
REDWOOD FALLS  CLEAR     74  47  38 S14       29.71R
TRACY          CLEAR     73  50  45 S13G18    29.73R
WINDOM         CLEAR     70  52  52 S8        29.76S
WORTHINGTON    CLEAR     68  50  52 S10       29.77S
$$

IAZ001>003-012>014-020>022-031-032-NEZ013-014-SDZ071-030300-
NORTHWEST IOWA

CITY           SKY/WX    TMP DP  RH WIND       PRES   REMARKS
CHEROKEE       MOCLDY    66  54  65 S13       29.78S
DENISON        MOCLDY    64  57  77 SE10      29.78S
ESTHERVILLE    CLEAR     65  53  65 S17       29.78S
LE MARS        CLEAR     68  55  64 SE9       29.75F
ORANGE CITY    CLEAR     66  54  63 SE7       29.76S
SHELDON        CLEAR     66  55  68 SE12      29.75F
SIOUX CITY     CLEAR     68  54  60 SE12      29.74S
SPENCER        CLEAR     67  54  63 S13       29.78F
STORM LAKE     PTCLDY    64  54  68 S16       29.81S
$$

ABBREVIATIONS USED IN REMARKS
   TC - TEMPERATURE IN CELSIUS
  WCI - WIND CHILL INDEX
   HX - HEAT INDEX
  VSB - VISIBILITY



USA.gov is the U.S. government's official web portal to all federal, state and local government web resources and services.